Time,TemperatureF,DewpointF,PressureIn,WindDirection,WindDirectionDegrees,WindSpeedMPH,WindSpeedGustMPH,Humidity,HourlyPrecipIn,Conditions,Clouds,dailyrainin,SoftwareType,DateUTC
2013-04-07 00:02:00,44.0,24.0,-100.00,WSW,243,10.0,20.0,46,0.00,,,-99.99,,2013-04-07 00:02:00,
2013-04-07 00:12:00,44.0,24.0,-100.00,SSW,202,8.0,18.0,45,0.00,,,-99.99,,2013-04-07 00:12:00,
2013-04-07 00:22:00,44.0,25.0,-100.00,SSW,212,12.0,22.0,47,0.00,,,-99.99,,2013-04-07 00:22:00,
2013-04-07 00:32:00,43.0,26.0,-100.00,SSW,206,14.0,29.0,50,0.00,,,-99.99,,2013-04-07 00:32:00,
2013-04-07 00:42:00,42.0,27.0,-100.00,SW,216,18.0,30.0,54,0.00,,,-99.99,,2013-04-07 00:42:00,
2013-04-07 00:52:00,40.0,29.0,-100.00,WSW,240,12.0,20.0,62,0.00,,,-99.99,,2013-04-07 00:52:00,
2013-04-07 01:02:00,40.0,29.0,-100.00,SW,219,10.0,15.0,65,0.00,,,-99.99,,2013-04-07 01:02:00,
2013-04-07 01:12:00,40.0,29.0,-100.00,SSW,203,7.0,14.0,66,0.00,,,-99.99,,2013-04-07 01:12:00,
2013-04-07 01:22:00,40.0,27.0,-100.00,WSW,244,7.0,14.0,59,0.00,,,-99.99,,2013-04-07 01:22:00,
2013-04-07 01:32:00,40.0,28.0,-100.00,WSW,254,7.0,12.0,60,0.00,,,-99.99,,2013-04-07 01:32:00,
2013-04-07 01:42:00,40.0,28.0,-100.00,West,272,9.0,14.0,61,0.00,,,-99.99,,2013-04-07 01:42:00,
2013-04-07 01:52:00,40.0,27.0,-100.00,West,274,7.0,10.0,60,0.00,,,-99.99,,2013-04-07 01:52:00,
2013-04-07 02:03:00,39.0,27.0,-100.00,WSW,250,6.0,11.0,62,0.00,,,-99.99,,2013-04-07 02:03:00,
2013-04-07 02:12:00,39.0,27.0,-100.00,SW,234,4.0,7.0,62,0.00,,,-99.99,,2013-04-07 02:12:00,
2013-04-07 02:23:00,39.0,27.0,-100.00,WSW,251,2.0,5.0,61,0.00,,,-99.99,,2013-04-07 02:23:00,
2013-04-07 02:32:00,39.0,26.0,-100.00,WSW,250,4.0,12.0,60,0.00,,,-99.99,,2013-04-07 02:32:00,
2013-04-07 02:42:00,39.0,26.0,-100.00,WSW,254,4.0,7.0,59,0.00,,,-99.99,,2013-04-07 02:42:00,
2013-04-07 02:52:00,38.0,26.0,-100.00,SSW,196,2.0,4.0,61,0.00,,,-99.99,,2013-04-07 02:52:00,
2013-04-07 03:02:00,39.0,26.0,-100.00,South,171,4.0,9.0,59,0.00,,,-99.99,,2013-04-07 03:02:00,
2013-04-07 03:12:00,39.0,27.0,-100.00,South,175,5.0,9.0,60,0.00,,,-99.99,,2013-04-07 03:12:00,
2013-04-07 03:22:00,39.0,27.0,-100.00,SW,216,7.0,14.0,62,0.00,,,-99.99,,2013-04-07 03:22:00,
2013-04-07 03:34:00,38.0,29.0,-100.00,WSW,251,9.0,19.0,72,0.00,,,-99.99,,2013-04-07 03:34:00,
2013-04-07 03:43:00,37.0,30.0,-100.00,SW,232,8.0,15.0,75,0.00,,,-99.99,,2013-04-07 03:43:00,
2013-04-07 03:53:00,36.0,29.0,-100.00,WSW,244,6.0,9.0,76,0.00,,,-99.99,,2013-04-07 03:53:00,
2013-04-07 04:03:00,37.0,29.0,-100.00,SW,230,11.0,17.0,71,0.00,,,-99.99,,2013-04-07 04:03:00,
2013-04-07 04:13:00,37.0,29.0,-100.00,SW,227,11.0,18.0,72,0.00,,,-99.99,,2013-04-07 04:13:00,
2013-04-07 04:23:00,37.0,29.0,-100.00,SW,224,14.0,22.0,73,0.00,,,-99.99,,2013-04-07 04:23:00,
2013-04-07 04:32:00,37.0,28.0,-100.00,WSW,237,11.0,18.0,69,0.00,,,-99.99,,2013-04-07 04:32:00,
2013-04-07 04:43:00,37.0,28.0,-100.00,SW,236,7.0,14.0,69,0.00,,,-99.99,,2013-04-07 04:43:00,
2013-04-07 04:52:00,36.0,28.0,-100.00,West,260,6.0,10.0,73,0.00,,,-99.99,,2013-04-07 04:52:00,
2013-04-07 05:02:00,36.0,29.0,-100.00,West,268,9.0,12.0,74,0.00,,,-99.99,,2013-04-07 05:02:00,
2013-04-07 05:12:00,36.0,29.0,-100.00,West,261,7.0,12.0,75,0.00,,,-99.99,,2013-04-07 05:12:00,
2013-04-07 05:22:00,36.0,29.0,-100.00,WSW,250,9.0,15.0,76,0.00,,,-99.99,,2013-04-07 05:22:00,
2013-04-07 05:33:00,36.0,30.0,-100.00,WSW,258,12.0,17.0,78,0.00,,,-99.99,,2013-04-07 05:33:00,
2013-04-07 05:42:00,36.0,29.0,-100.00,WSW,248,8.0,12.0,76,0.00,,,-99.99,,2013-04-07 05:42:00,
2013-04-07 05:52:00,36.0,27.0,-100.00,SW,226,11.0,17.0,69,0.00,,,-99.99,,2013-04-07 05:52:00,
2013-04-07 06:02:00,36.0,28.0,-100.00,SW,220,11.0,20.0,70,0.00,,,-99.99,,2013-04-07 06:02:00,
2013-04-07 06:12:00,36.0,28.0,-100.00,SW,226,12.0,20.0,71,0.00,,,-99.99,,2013-04-07 06:12:00,
2013-04-07 06:22:00,36.0,27.0,-100.00,West,264,9.0,12.0,71,0.00,,,-99.99,,2013-04-07 06:22:00,
2013-04-07 06:32:00,36.0,27.0,-100.00,WNW,282,11.0,15.0,69,0.00,,,-99.99,,2013-04-07 06:32:00,
2013-04-07 06:42:00,36.0,27.0,-100.00,WNW,284,11.0,15.0,69,0.00,,,-99.99,,2013-04-07 06:42:00,
2013-04-07 06:52:00,36.0,26.0,-100.00,West,264,7.0,12.0,66,0.00,,,-99.99,,2013-04-07 06:52:00,
2013-04-07 07:02:00,37.0,26.0,-100.00,SSW,208,3.0,9.0,66,0.00,,,-99.99,,2013-04-07 07:02:00,
2013-04-07 07:12:00,37.0,26.0,-100.00,South,179,4.0,9.0,65,0.00,,,-99.99,,2013-04-07 07:12:00,
2013-04-07 07:22:00,37.0,26.0,-100.00,South,175,4.0,11.0,64,0.00,,,-99.99,,2013-04-07 07:22:00,
2013-04-07 07:32:00,37.0,26.0,-100.00,SW,222,4.0,10.0,63,0.00,,,-99.99,,2013-04-07 07:32:00,
2013-04-07 07:42:00,37.0,26.0,-100.00,SW,219,4.0,7.0,63,0.00,,,-99.99,,2013-04-07 07:42:00,
2013-04-07 07:52:00,37.0,26.0,-100.00,South,186,4.0,10.0,64,0.00,,,-99.99,,2013-04-07 07:52:00,
2013-04-07 08:02:00,37.0,26.0,-100.00,WSW,250,6.0,14.0,63,0.00,,,-99.99,,2013-04-07 08:02:00,
2013-04-07 08:12:00,37.0,26.0,-100.00,NW,318,6.0,11.0,62,0.00,,,-99.99,,2013-04-07 08:12:00,
2013-04-07 08:22:00,37.0,25.0,-100.00,NNW,328,6.0,11.0,62,0.00,,,-99.99,,2013-04-07 08:22:00,
2013-04-07 08:32:00,37.0,25.0,-100.00,SW,215,3.0,10.0,61,0.00,,,-99.99,,2013-04-07 08:32:00,
2013-04-07 08:42:00,37.0,24.0,-100.00,SSW,205,4.0,12.0,61,0.00,,,-99.99,,2013-04-07 08:42:00,
2013-04-07 08:52:00,37.0,22.0,-100.00,WSW,239,8.0,18.0,53,0.00,,,-99.99,,2013-04-07 08:52:00,
2013-04-07 09:02:00,37.0,23.0,-100.00,WSW,247,12.0,19.0,56,0.00,,,-99.99,,2013-04-07 09:02:00,
2013-04-07 09:12:00,36.0,23.0,-100.00,WSW,248,12.0,18.0,57,0.00,,,-99.99,,2013-04-07 09:12:00,
2013-04-07 09:22:00,36.0,23.0,-100.00,SW,234,12.0,24.0,57,0.00,,,-99.99,,2013-04-07 09:22:00,
2013-04-07 09:33:00,36.0,23.0,-100.00,SW,232,16.0,24.0,59,0.00,,,-99.99,,2013-04-07 09:33:00,
2013-04-07 09:43:00,36.0,23.0,-100.00,SW,222,15.0,24.0,59,0.00,,,-99.99,,2013-04-07 09:43:00,
2013-04-07 09:53:00,36.0,23.0,-100.00,SW,226,11.0,19.0,59,0.00,,,-99.99,,2013-04-07 09:53:00,
2013-04-07 10:03:00,36.0,23.0,-100.00,SW,226,13.0,22.0,59,0.00,,,-99.99,,2013-04-07 10:03:00,
2013-04-07 10:13:00,35.0,23.0,-100.00,West,261,8.0,13.0,60,0.00,,,-99.99,,2013-04-07 10:13:00,
2013-04-07 10:22:00,35.0,23.0,-100.00,SW,219,7.0,18.0,62,0.00,,,-99.99,,2013-04-07 10:22:00,
2013-04-07 10:33:00,35.0,24.0,-100.00,SW,232,12.0,33.0,61,0.00,,,-99.99,,2013-04-07 10:33:00,
2013-04-07 10:42:00,35.0,24.0,-100.00,SW,224,24.0,43.0,61,0.00,,,-99.99,,2013-04-07 10:42:00,
2013-04-07 10:52:00,35.0,24.0,-100.00,SW,223,29.0,42.0,62,0.00,,,-99.99,,2013-04-07 10:52:00,
2013-04-07 11:03:00,35.0,24.0,-100.00,SW,220,29.0,44.0,62,0.00,,,-99.99,,2013-04-07 11:03:00,
2013-04-07 11:12:00,35.0,24.0,-100.00,SW,219,27.0,44.0,62,0.00,,,-99.99,,2013-04-07 11:12:00,
2013-04-07 11:22:00,36.0,23.0,-100.00,SW,216,26.0,40.0,60,0.00,,,-99.99,,2013-04-07 11:22:00,
2013-04-07 11:32:00,36.0,23.0,-100.00,SW,220,29.0,40.0,61,0.00,,,-99.99,,2013-04-07 11:32:00,
2013-04-07 11:42:00,36.0,24.0,-100.00,SW,223,28.0,42.0,61,0.00,,,-99.99,,2013-04-07 11:42:00,
2013-04-07 11:52:00,36.0,23.0,-100.00,SW,224,28.0,38.0,61,0.00,,,-99.99,,2013-04-07 11:52:00,
2013-04-07 12:02:00,35.0,23.0,-100.00,SW,224,26.0,42.0,61,0.00,,,-99.99,,2013-04-07 12:02:00,
2013-04-07 12:12:00,35.0,24.0,-100.00,SW,232,22.0,35.0,61,0.00,,,-99.99,,2013-04-07 12:12:00,
2013-04-07 12:22:00,35.0,23.0,-100.00,SW,227,25.0,38.0,60,0.00,,,-99.99,,2013-04-07 12:22:00,
2013-04-07 12:34:00,35.0,22.0,-100.00,SW,222,21.0,37.0,59,0.00,,,-99.99,,2013-04-07 12:34:00,
2013-04-07 12:42:00,35.0,22.0,-100.00,SW,226,17.0,26.0,59,0.00,,,-99.99,,2013-04-07 12:42:00,
2013-04-07 12:53:00,35.0,22.0,-100.00,SW,222,9.0,19.0,59,0.00,,,-99.99,,2013-04-07 12:53:00,
2013-04-07 13:03:00,35.0,21.0,-100.00,SSW,193,9.0,19.0,57,0.00,,,-99.99,,2013-04-07 13:03:00,
2013-04-07 13:13:00,35.0,21.0,-100.00,South,178,9.0,17.0,57,0.00,,,-99.99,,2013-04-07 13:13:00,
2013-04-07 13:22:00,35.0,20.0,-100.00,South,172,10.0,18.0,54,0.00,,,-99.99,,2013-04-07 13:22:00,
2013-04-07 13:32:00,35.0,20.0,-100.00,South,188,11.0,22.0,54,0.00,,,-99.99,,2013-04-07 13:32:00,
2013-04-07 13:42:00,36.0,21.0,-100.00,SSW,213,14.0,25.0,54,0.00,,,-99.99,,2013-04-07 13:42:00,
2013-04-07 13:52:00,36.0,21.0,-100.00,SW,223,19.0,30.0,54,0.00,,,-99.99,,2013-04-07 13:52:00,
2013-04-07 14:02:00,37.0,22.0,-100.00,SW,229,14.0,24.0,54,0.00,,,-99.99,,2013-04-07 14:02:00,
2013-04-07 14:12:00,37.0,21.0,-100.00,SW,226,17.0,29.0,53,0.00,,,-99.99,,2013-04-07 14:12:00,
2013-04-07 14:23:00,38.0,22.0,-100.00,SSW,212,14.0,22.0,52,0.00,,,-99.99,,2013-04-07 14:23:00,
2013-04-07 14:32:00,38.0,21.0,-100.00,SSW,210,14.0,26.0,51,0.00,,,-99.99,,2013-04-07 14:32:00,
2013-04-07 14:43:00,39.0,22.0,-100.00,SSW,203,9.0,21.0,50,0.00,,,-99.99,,2013-04-07 14:43:00,
2013-04-07 14:53:00,39.0,21.0,-100.00,South,181,9.0,20.0,48,0.00,,,-99.99,,2013-04-07 14:53:00,
2013-04-07 15:03:00,39.0,22.0,-100.00,SSW,195,10.0,19.0,48,0.00,,,-99.99,,2013-04-07 15:03:00,
2013-04-07 15:12:00,39.0,21.0,-100.00,SW,226,16.0,34.0,48,0.00,,,-99.99,,2013-04-07 15:12:00,
2013-04-07 15:22:00,39.0,20.0,-100.00,SW,236,17.0,29.0,46,0.00,,,-99.99,,2013-04-07 15:22:00,
2013-04-07 15:34:00,40.0,21.0,-100.00,WSW,240,14.0,22.0,47,0.00,,,-99.99,,2013-04-07 15:34:00,
2013-04-07 15:43:00,40.0,20.0,-100.00,WSW,241,14.0,26.0,46,0.00,,,-99.99,,2013-04-07 15:43:00,
2013-04-07 15:53:00,40.0,21.0,-100.00,SW,236,16.0,31.0,46,0.00,,,-99.99,,2013-04-07 15:53:00,
2013-04-07 16:03:00,40.0,21.0,-100.00,WSW,239,14.0,29.0,46,0.00,,,-99.99,,2013-04-07 16:03:00,
2013-04-07 16:13:00,40.0,21.0,-100.00,WSW,250,14.0,29.0,45,0.00,,,-99.99,,2013-04-07 16:13:00,
2013-04-07 16:24:00,41.0,22.0,-100.00,WSW,237,10.0,19.0,45,0.00,,,-99.99,,2013-04-07 16:24:00,
2013-04-07 16:33:00,42.0,22.0,-100.00,SW,227,9.0,17.0,45,0.00,,,-99.99,,2013-04-07 16:33:00,
2013-04-07 16:42:00,41.0,22.0,-100.00,West,260,12.0,24.0,46,0.00,,,-99.99,,2013-04-07 16:42:00,
2013-04-07 16:53:00,44.0,21.0,-100.00,WSW,257,12.0,27.0,40,0.00,,,-99.99,,2013-04-07 16:53:00,
2013-04-07 17:04:00,43.0,22.0,-100.00,WSW,256,9.0,27.0,42,0.00,,,-99.99,,2013-04-07 17:04:00,
2013-04-07 17:13:00,42.0,21.0,-100.00,WSW,256,6.0,12.0,42,0.00,,,-99.99,,2013-04-07 17:13:00,
2013-04-07 17:23:00,42.0,21.0,-100.00,North,4,2.0,6.0,41,0.00,,,-99.99,,2013-04-07 17:23:00,
2013-04-07 17:33:00,43.0,21.0,-100.00,South,172,9.0,21.0,42,0.00,,,-99.99,,2013-04-07 17:33:00,
2013-04-07 17:43:00,43.0,20.0,-100.00,SSW,208,8.0,17.0,41,0.00,,,-99.99,,2013-04-07 17:43:00,
2013-04-07 17:52:00,43.0,20.0,-100.00,SW,232,7.0,13.0,40,0.00,,,-99.99,,2013-04-07 17:52:00,
2013-04-07 18:02:00,43.0,20.0,-100.00,SW,215,7.0,16.0,40,0.00,,,-99.99,,2013-04-07 18:02:00,
2013-04-07 18:13:00,43.0,20.0,-100.00,WSW,244,10.0,20.0,40,0.00,,,-99.99,,2013-04-07 18:13:00,
2013-04-07 18:23:00,42.0,20.0,-100.00,WSW,239,9.0,18.0,41,0.00,,,-99.99,,2013-04-07 18:23:00,
2013-04-07 18:32:00,42.0,19.0,-100.00,WSW,254,8.0,17.0,40,0.00,,,-99.99,,2013-04-07 18:32:00,
2013-04-07 18:42:00,42.0,19.0,-100.00,WSW,243,12.0,37.0,39,0.00,,,-99.99,,2013-04-07 18:42:00,
2013-04-07 18:52:00,42.0,20.0,-100.00,West,260,10.0,18.0,41,0.00,,,-99.99,,2013-04-07 18:52:00,
2013-04-07 19:02:00,42.0,19.0,-100.00,WNW,301,4.0,14.0,39,0.00,,,-99.99,,2013-04-07 19:02:00,
2013-04-07 19:12:00,42.0,22.0,-100.00,NW,312,4.0,16.0,44,0.00,,,-99.99,,2013-04-07 19:12:00,
2013-04-07 19:22:00,42.0,21.0,-100.00,SW,229,6.0,12.0,43,0.00,,,-99.99,,2013-04-07 19:22:00,
2013-04-07 19:32:00,43.0,22.0,-100.00,SW,236,6.0,24.0,44,0.00,,,-99.99,,2013-04-07 19:32:00,
2013-04-07 19:42:00,42.0,24.0,-100.00,SSW,212,13.0,30.0,49,0.00,,,-99.99,,2013-04-07 19:42:00,
2013-04-07 19:53:00,42.0,24.0,-100.00,WSW,243,8.0,19.0,50,0.00,,,-99.99,,2013-04-07 19:53:00,
2013-04-07 20:02:00,41.0,24.0,-100.00,South,184,6.0,15.0,49,0.00,,,-99.99,,2013-04-07 20:02:00,
2013-04-07 20:13:00,41.0,24.0,-100.00,South,172,7.0,15.0,50,0.00,,,-99.99,,2013-04-07 20:13:00,
2013-04-07 20:22:00,41.0,24.0,-100.00,NE,42,9.0,16.0,48,0.00,,,-99.99,,2013-04-07 20:22:00,
2013-04-07 20:32:00,43.0,23.0,-100.00,NE,41,6.0,16.0,45,0.00,,,-99.99,,2013-04-07 20:32:00,
2013-04-07 20:43:00,44.0,23.0,-100.00,East,86,6.0,12.0,43,0.00,,,-99.99,,2013-04-07 20:43:00,
2013-04-07 20:52:00,45.0,24.0,-100.00,ENE,65,8.0,14.0,43,0.00,,,-99.99,,2013-04-07 20:52:00,
2013-04-07 21:03:00,45.0,23.0,-100.00,East,93,6.0,12.0,43,0.00,,,-99.99,,2013-04-07 21:03:00,
2013-04-07 21:13:00,45.0,23.0,-100.00,East,88,6.0,18.0,42,0.00,,,-99.99,,2013-04-07 21:13:00,
2013-04-07 21:22:00,43.0,29.0,-100.00,SSW,212,11.0,29.0,57,0.00,,,-99.99,,2013-04-07 21:22:00,
2013-04-07 21:34:00,39.0,27.0,-100.00,SW,216,21.0,37.0,62,0.00,,,-99.99,,2013-04-07 21:34:00,
2013-04-07 21:43:00,39.0,28.0,-100.00,South,188,17.0,40.0,64,0.00,,,-99.99,,2013-04-07 21:43:00,
2013-04-07 21:53:00,40.0,29.0,-100.00,SW,236,22.0,39.0,64,0.00,,,-99.99,,2013-04-07 21:53:00,
2013-04-07 22:03:00,43.0,29.0,-100.00,SW,236,19.0,32.0,57,0.00,,,-99.99,,2013-04-07 22:03:00,
2013-04-07 22:13:00,43.0,29.0,-100.00,SW,232,19.0,30.0,56,0.00,,,-99.99,,2013-04-07 22:13:00,
2013-04-07 22:23:00,42.0,24.0,-100.00,SW,226,24.0,38.0,48,0.00,,,-99.99,,2013-04-07 22:23:00,
2013-04-07 22:34:00,41.0,24.0,-100.00,SW,220,22.0,38.0,50,0.00,,,-99.99,,2013-04-07 22:34:00,
2013-04-07 22:43:00,38.0,30.0,-100.00,SSW,192,13.0,30.0,75,0.00,,,-99.99,,2013-04-07 22:43:00,
2013-04-07 22:52:00,39.0,28.0,-100.00,SW,227,7.0,16.0,65,0.00,,,-99.99,,2013-04-07 22:52:00,
2013-04-07 23:03:00,40.0,26.0,-100.00,WSW,248,13.0,22.0,57,0.00,,,-99.99,,2013-04-07 23:03:00,
2013-04-07 23:12:00,41.0,27.0,-100.00,WSW,244,15.0,28.0,57,0.00,,,-99.99,,2013-04-07 23:12:00,
2013-04-07 23:22:00,41.0,28.0,-100.00,SW,227,21.0,33.0,58,0.00,,,-99.99,,2013-04-07 23:22:00,
2013-04-07 23:32:00,42.0,27.0,-100.00,WSW,247,16.0,30.0,54,0.00,,,-99.99,,2013-04-07 23:32:00,
2013-04-07 23:42:00,41.0,26.0,-100.00,WSW,246,16.0,25.0,55,0.00,,,-99.99,,2013-04-07 23:42:00,
2013-04-07 23:52:00,40.0,27.0,-100.00,WSW,250,17.0,27.0,58,0.00,,,-99.99,,2013-04-07 23:52:00,